COSMOS 2015

Satellite information

Favourite Embed

Satellite Type and Status

PAYLOADIN ORBIT

Key statistics

Satellite COSMOS 2015 at a glance.

Uptime

13370

Days in orbit

Revolutions

≈ 12.4

Per day

Orbit

LEO

Low Earth Orbit

Inclination

74.0

Latest

Satellite identification and parameters

Extended collection of information and parameters for COSMOS 2015.

Object identification

Identified? True

Debris? False

Object name: COSMOS 2015

International designator: 1989-025H

Object number (NORAD): 19909

Object ID (CCSDS): 19909

Country: COMMONWEALTH OF INDEPENDENT STATES (CIS)

Current information (Y/N): Y

RCS size: MEDIUM

Orbital parameters

Period: 115.75 minutes

Inclination: 74.0086 deg

SMA: 7867.565 km

Apoapsis: 1509.647 km

Periapsis: 1469.213 km

RAAN: 86.4986 deg

Eccentricy: 0.00256963

Argument of periapsis: 209.2892 deg

Mean anomaly: 305.5255 deg

Mean motion: 12.44062648 rev/day

Mean motion (dot): 0.00000009 rev/day2

B* drag term: 0.00017646975 1/REarth

Two-line elements (TLE)

Creation date: Oct. 31, 2025, 3 a.m.

Reference frame: TEME

Reference center: EARTH

Epoch: Oct. 30, 2025, 8:50 p.m. UTC

TLE line 0: 0 COSMOS 2015

TLE line 1: 1 19909U 89025H 25303.86806949 .00000009 00000-0 17647-3 0 9992

TLE line 2: 2 19909 74.0086 86.4986 0025696 209.2892 305.5255 12.44062648662260

Live tracking on map

Real-time ground track for satellite COSMOS 2015.

In-orbit conjunctions

A list of the most updated potential collisions computed for object COSMOS 2015.

Target Orbit TCA Probability of collision Miss distance Type
DELTA 1 DEB SSO 2025-07-14 00:36:56 0.0001228299 983.0 (m) DEBRIS

Associated space launch

Military communications satellites

COSMOS 2015 was lifted into orbit during the mission ‘Kosmos-3M | Strela-1M 337-344’, on board a Kosmos-3M space rocket.

The launch took place on March 24, 1989, 1:38 p.m. from 132/2.

For more information about the launch, click the button.

Launch to space Kosmos-3M | Strela-1M 337-344
Kosmos-3M | Strela-1M 337-344

Agency: N/A

Status: Launch Successful

Launch date: March 24, 1989, 1:38 p.m. UTC

Rocket: Kosmos-3M

Launch pad: 132/2

Location: Plesetsk Cosmodrome, Russian Federation

...

Latest news about this satellite

There are no fresh news available about this satellite. Check back as we update our databases every day.


Newsletter sign-up

Weekly statistics, charts and insights to help you stay on top of the space industry.